Time,TemperatureF,DewpointF,PressureIn,WindDirection,WindDirectionDegrees,WindSpeedMPH,WindSpeedGustMPH,Humidity,HourlyPrecipIn,Conditions,Clouds,dailyrainin,SoftwareType,DateUTC
2013-10-15 00:09:00,64.0,61.9,30.05,WNW,292,0.0,-999.0,93,-99.99,,,0.00,Acu-Link.com,2013-10-15 04:09:00,
2013-10-15 00:24:00,63.9,62.1,30.05,NNW,337,0.0,-999.0,94,-99.99,,,0.00,Acu-Link.com,2013-10-15 04:24:00,
2013-10-15 00:39:00,63.7,61.9,30.06,West,270,0.0,-999.0,94,-99.99,,,0.00,Acu-Link.com,2013-10-15 04:39:00,
2013-10-15 00:54:00,63.3,61.8,30.05,SE,135,0.0,-999.0,95,-99.99,,,0.00,Acu-Link.com,2013-10-15 04:54:00,
2013-10-15 01:09:00,63.1,61.3,30.05,SSW,202,0.0,-999.0,94,-99.99,,,0.00,Acu-Link.com,2013-10-15 05:09:00,
2013-10-15 01:25:00,62.8,61.0,30.05,West,270,0.0,-999.0,94,-99.99,,,0.00,Acu-Link.com,2013-10-15 05:25:00,
2013-10-15 01:40:00,62.8,61.0,30.05,SSW,202,0.0,-999.0,94,-99.99,,,0.00,Acu-Link.com,2013-10-15 05:40:00,
2013-10-15 01:56:00,62.2,60.7,30.04,SW,225,0.0,-999.0,95,-99.99,,,0.00,Acu-Link.com,2013-10-15 05:56:00,
2013-10-15 02:13:00,62.1,60.6,30.04,East,90,0.0,-999.0,95,-99.99,,,0.00,Acu-Link.com,2013-10-15 06:13:00,
2013-10-15 02:28:00,61.7,60.5,30.05,SSW,202,0.0,-999.0,96,-99.99,,,0.00,Acu-Link.com,2013-10-15 06:28:00,
2013-10-15 02:44:00,61.5,60.3,30.04,ENE,67,0.0,-999.0,96,-99.99,,,0.00,Acu-Link.com,2013-10-15 06:44:00,
2013-10-15 03:00:00,61.3,60.4,30.04,NW,315,0.0,-999.0,97,-99.99,,,0.00,Acu-Link.com,2013-10-15 07:00:00,
2013-10-15 03:15:00,61.3,60.4,30.03,NW,315,0.0,-999.0,97,-99.99,,,0.00,Acu-Link.com,2013-10-15 07:15:00,
2013-10-15 03:30:00,61.2,60.3,30.03,South,180,0.0,-999.0,97,-99.99,,,0.00,Acu-Link.com,2013-10-15 07:30:00,
2013-10-15 03:45:00,61.0,60.1,30.03,NE,45,0.0,-999.0,97,-99.99,,,0.00,Acu-Link.com,2013-10-15 07:45:00,
2013-10-15 04:01:00,61.0,60.1,30.03,East,90,0.0,-999.0,97,-99.99,,,0.00,Acu-Link.com,2013-10-15 08:01:00,
2013-10-15 04:17:00,61.0,60.1,30.04,South,180,0.0,-999.0,97,-99.99,,,0.00,Acu-Link.com,2013-10-15 08:17:00,
2013-10-15 04:37:00,61.0,60.1,30.04,West,270,0.0,-999.0,97,-99.99,,,0.00,Acu-Link.com,2013-10-15 08:37:00,
2013-10-15 04:52:00,61.9,60.5,30.02,North,0,0.0,-999.0,95,-99.99,,,0.00,Acu-Link.com,2013-10-15 08:52:00,
2013-10-15 05:07:00,61.9,60.5,30.02,NW,315,0.0,-999.0,95,-99.99,,,0.00,Acu-Link.com,2013-10-15 09:07:00,
2013-10-15 05:22:00,61.9,60.5,30.02,NE,45,0.0,-999.0,95,-99.99,,,0.00,Acu-Link.com,2013-10-15 09:22:00,
2013-10-15 05:37:00,61.9,60.5,30.02,East,90,0.0,-999.0,95,-99.99,,,0.00,Acu-Link.com,2013-10-15 09:37:00,
2013-10-15 05:52:00,61.9,60.2,30.02,NW,315,0.0,-999.0,94,-99.99,,,0.00,Acu-Link.com,2013-10-15 09:52:00,
2013-10-15 06:07:00,61.9,60.2,30.02,NNE,22,0.0,-999.0,94,-99.99,,,0.00,Acu-Link.com,2013-10-15 10:07:00,
2013-10-15 06:23:00,61.7,59.7,30.02,NW,315,0.0,-999.0,93,-99.99,,,0.00,Acu-Link.com,2013-10-15 10:23:00,
2013-10-15 06:38:00,61.5,59.5,30.02,SSW,202,0.0,-999.0,93,-99.99,,,0.00,Acu-Link.com,2013-10-15 10:38:00,
2013-10-15 06:53:00,61.5,59.2,30.03,NW,315,0.0,-999.0,92,-99.99,,,0.00,Acu-Link.com,2013-10-15 10:53:00,
2013-10-15 07:08:00,61.3,58.6,30.03,NW,315,0.0,-999.0,91,-99.99,,,0.00,Acu-Link.com,2013-10-15 11:08:00,
2013-10-15 07:23:00,61.3,58.6,30.03,West,270,1.7,-999.0,91,-99.99,,,0.00,Acu-Link.com,2013-10-15 11:23:00,
2013-10-15 07:38:00,61.2,58.5,30.03,SE,135,0.0,-999.0,91,-99.99,,,0.00,Acu-Link.com,2013-10-15 11:38:00,
2013-10-15 07:53:00,61.0,58.0,30.04,WSW,247,0.0,-999.0,90,-99.99,,,0.00,Acu-Link.com,2013-10-15 11:53:00,
2013-10-15 08:08:00,61.0,58.0,30.04,SW,225,0.0,-999.0,90,-99.99,,,0.00,Acu-Link.com,2013-10-15 12:08:00,
2013-10-15 08:23:00,61.0,58.4,30.05,WNW,292,0.0,-999.0,91,-99.99,,,0.00,Acu-Link.com,2013-10-15 12:23:00,
2013-10-15 08:39:00,61.2,58.2,30.04,SW,225,0.0,-999.0,90,-99.99,,,0.00,Acu-Link.com,2013-10-15 12:39:00,
2013-10-15 08:54:00,61.3,58.0,30.04,ENE,67,0.0,-999.0,89,-99.99,,,0.00,Acu-Link.com,2013-10-15 12:54:00,
2013-10-15 09:09:00,61.7,58.4,30.04,ESE,112,0.0,-999.0,89,-99.99,,,0.00,Acu-Link.com,2013-10-15 13:09:00,
2013-10-15 09:24:00,62.1,58.8,30.05,NNW,337,1.7,-999.0,89,-99.99,,,0.00,Acu-Link.com,2013-10-15 13:24:00,
2013-10-15 09:39:00,62.4,58.5,30.05,NE,45,2.2,-999.0,87,-99.99,,,0.00,Acu-Link.com,2013-10-15 13:39:00,
2013-10-15 09:54:00,62.8,59.2,30.05,ESE,112,0.0,-999.0,88,-99.99,,,0.00,Acu-Link.com,2013-10-15 13:54:00,
2013-10-15 10:09:00,63.1,59.2,30.04,East,90,0.0,-999.0,87,-99.99,,,0.00,Acu-Link.com,2013-10-15 14:09:00,
2013-10-15 10:24:00,63.5,58.6,30.04,NE,45,1.7,-999.0,84,-99.99,,,0.00,Acu-Link.com,2013-10-15 14:24:00,
2013-10-15 10:39:00,64.0,58.7,30.04,SE,135,0.0,-999.0,83,-99.99,,,0.00,Acu-Link.com,2013-10-15 14:39:00,
2013-10-15 10:55:00,64.2,58.9,30.04,NE,45,0.0,-999.0,83,-99.99,,,0.00,Acu-Link.com,2013-10-15 14:55:00,
2013-10-15 11:10:00,64.9,58.9,30.04,NNW,337,2.7,-999.0,81,-99.99,,,0.00,Acu-Link.com,2013-10-15 15:10:00,
2013-10-15 11:25:00,64.9,59.3,30.04,ENE,67,0.0,-999.0,82,-99.99,,,0.00,Acu-Link.com,2013-10-15 15:25:00,
2013-10-15 11:40:00,65.1,58.8,30.04,NNW,337,1.7,-999.0,80,-99.99,,,0.00,Acu-Link.com,2013-10-15 15:40:00,
2013-10-15 11:55:00,65.7,58.6,30.04,NW,315,2.2,-999.0,78,-99.99,,,0.00,Acu-Link.com,2013-10-15 15:55:00,
2013-10-15 12:10:00,66.6,59.9,30.03,West,270,1.7,-999.0,79,-99.99,,,0.00,Acu-Link.com,2013-10-15 16:10:00,
2013-10-15 12:25:00,67.1,59.6,30.03,SSW,202,0.0,-999.0,77,-99.99,,,0.00,Acu-Link.com,2013-10-15 16:25:00,
2013-10-15 12:40:00,66.7,59.3,30.02,South,180,0.0,-999.0,77,-99.99,,,0.00,Acu-Link.com,2013-10-15 16:40:00,
2013-10-15 12:55:00,67.1,58.9,30.02,NE,45,1.7,-999.0,75,-99.99,,,0.00,Acu-Link.com,2013-10-15 16:55:00,
2013-10-15 13:10:00,66.9,58.7,30.01,East,90,2.7,-999.0,75,-99.99,,,0.00,Acu-Link.com,2013-10-15 17:10:00,
2013-10-15 13:26:00,66.6,59.2,30.01,SSE,157,0.0,-999.0,77,-99.99,,,0.00,Acu-Link.com,2013-10-15 17:26:00,
2013-10-15 13:41:00,66.4,59.3,29.99,South,180,0.0,-999.0,78,-99.99,,,0.00,Acu-Link.com,2013-10-15 17:41:00,
2013-10-15 13:56:00,66.9,59.4,29.99,NNE,22,1.1,-999.0,77,-99.99,,,0.00,Acu-Link.com,2013-10-15 17:56:00,
2013-10-15 14:11:00,67.1,59.3,29.98,South,180,0.0,-999.0,76,-99.99,,,0.00,Acu-Link.com,2013-10-15 18:11:00,
2013-10-15 14:26:00,67.3,58.7,29.97,West,270,0.0,-999.0,74,-99.99,,,0.00,Acu-Link.com,2013-10-15 18:26:00,
2013-10-15 14:41:00,67.6,59.0,29.97,WSW,247,0.0,-999.0,74,-99.99,,,0.00,Acu-Link.com,2013-10-15 18:41:00,
2013-10-15 14:56:00,67.6,60.1,29.97,ESE,112,0.0,-999.0,77,-99.99,,,0.00,Acu-Link.com,2013-10-15 18:56:00,
2013-10-15 15:11:00,67.8,59.2,29.96,NW,315,1.1,-999.0,74,-99.99,,,0.00,Acu-Link.com,2013-10-15 19:11:00,
2013-10-15 15:26:00,66.7,58.9,29.97,NNE,22,1.7,-999.0,76,-99.99,,,0.00,Acu-Link.com,2013-10-15 19:26:00,
2013-10-15 15:42:00,67.1,59.6,29.96,SE,135,0.0,-999.0,77,-99.99,,,0.00,Acu-Link.com,2013-10-15 19:42:00,
2013-10-15 15:57:00,68.0,59.4,29.95,West,270,1.7,-999.0,74,-99.99,,,0.00,Acu-Link.com,2013-10-15 19:57:00,
2013-10-15 16:12:00,67.8,59.6,29.95,SE,135,0.0,-999.0,75,-99.99,,,0.00,Acu-Link.com,2013-10-15 20:12:00,
2013-10-15 16:27:00,68.4,60.2,29.94,SSE,157,0.0,-999.0,75,-99.99,,,0.00,Acu-Link.com,2013-10-15 20:27:00,
2013-10-15 16:42:00,68.0,60.1,29.94,SW,225,0.0,-999.0,76,-99.99,,,0.00,Acu-Link.com,2013-10-15 20:42:00,
2013-10-15 16:57:00,67.6,59.4,29.94,NE,45,2.2,-999.0,75,-99.99,,,0.00,Acu-Link.com,2013-10-15 20:57:00,
2013-10-15 17:12:00,67.6,59.4,29.94,West,270,0.0,-999.0,75,-99.99,,,0.00,Acu-Link.com,2013-10-15 21:12:00,
2013-10-15 17:27:00,67.5,60.4,29.94,SW,225,0.0,-999.0,78,-99.99,,,0.00,Acu-Link.com,2013-10-15 21:27:00,
2013-10-15 17:42:00,67.1,60.4,29.94,SW,225,0.0,-999.0,79,-99.99,,,0.00,Acu-Link.com,2013-10-15 21:42:00,
2013-10-15 17:58:00,66.6,60.2,29.94,SSW,202,0.0,-999.0,80,-99.99,,,0.00,Acu-Link.com,2013-10-15 21:58:00,
2013-10-15 18:13:00,66.2,60.9,29.94,SSW,202,0.0,-999.0,83,-99.99,,,0.00,Acu-Link.com,2013-10-15 22:13:00,
2013-10-15 18:28:00,65.7,60.7,29.94,SSW,202,0.0,-999.0,84,-99.99,,,0.00,Acu-Link.com,2013-10-15 22:28:00,
2013-10-15 18:43:00,64.8,60.5,29.94,SSW,202,0.0,-999.0,86,-99.99,,,0.00,Acu-Link.com,2013-10-15 22:43:00,
2013-10-15 18:58:00,63.7,60.1,29.94,SSW,202,0.0,-999.0,88,-99.99,,,0.00,Acu-Link.com,2013-10-15 22:58:00,
2013-10-15 19:13:00,62.8,59.2,29.94,SW,225,0.0,-999.0,88,-99.99,,,0.00,Acu-Link.com,2013-10-15 23:13:00,
2013-10-15 19:28:00,62.2,59.5,29.94,SW,225,0.0,-999.0,91,-99.99,,,0.00,Acu-Link.com,2013-10-15 23:28:00,
2013-10-15 19:43:00,61.7,59.7,29.94,SW,225,0.0,-999.0,93,-99.99,,,0.00,Acu-Link.com,2013-10-15 23:43:00,
2013-10-15 19:58:00,61.2,59.5,29.94,SW,225,0.0,-999.0,94,-99.99,,,0.00,Acu-Link.com,2013-10-15 23:58:00,
2013-10-15 20:14:00,61.0,59.6,29.94,SW,225,0.0,-999.0,95,-99.99,,,0.00,Acu-Link.com,2013-10-16 00:14:00,
2013-10-15 20:29:00,60.4,59.5,29.95,NNW,337,0.0,-999.0,97,-99.99,,,0.00,Acu-Link.com,2013-10-16 00:29:00,
2013-10-15 20:44:00,60.3,59.4,29.95,ENE,67,0.0,-999.0,97,-99.99,,,0.00,Acu-Link.com,2013-10-16 00:44:00,
2013-10-15 20:59:00,60.1,59.5,29.95,SW,225,0.0,-999.0,98,-99.99,,,0.00,Acu-Link.com,2013-10-16 00:59:00,
2013-10-15 21:14:00,59.7,59.1,29.95,ESE,112,0.0,-999.0,98,-99.99,,,0.00,Acu-Link.com,2013-10-16 01:14:00,
2013-10-15 21:29:00,59.4,58.8,29.95,SW,225,0.0,-999.0,98,-99.99,,,0.00,Acu-Link.com,2013-10-16 01:29:00,
2013-10-15 21:44:00,59.2,58.6,29.95,SSW,202,0.0,-999.0,98,-99.99,,,0.00,Acu-Link.com,2013-10-16 01:44:00,
2013-10-15 21:59:00,58.8,58.5,29.96,SSW,202,0.0,-999.0,99,-99.99,,,0.00,Acu-Link.com,2013-10-16 01:59:00,
2013-10-15 22:14:00,58.6,58.3,29.96,SSE,157,0.0,-999.0,99,-99.99,,,0.00,Acu-Link.com,2013-10-16 02:14:00,
2013-10-15 22:30:00,58.3,58.0,29.97,SW,225,0.0,-999.0,99,-99.99,,,0.00,Acu-Link.com,2013-10-16 02:30:00,
2013-10-15 22:45:00,58.1,57.8,29.96,South,180,0.0,-999.0,99,-99.99,,,0.00,Acu-Link.com,2013-10-16 02:45:00,
2013-10-15 23:00:00,57.7,57.4,29.97,NNW,337,0.0,-999.0,99,-99.99,,,0.00,Acu-Link.com,2013-10-16 03:00:00,
2013-10-15 23:15:00,57.7,57.4,29.97,SSE,157,0.0,-999.0,99,-99.99,,,0.00,Acu-Link.com,2013-10-16 03:15:00,
2013-10-15 23:30:00,57.7,57.4,29.96,SSW,202,0.0,-999.0,99,-99.99,,,0.00,Acu-Link.com,2013-10-16 03:30:00,
2013-10-15 23:45:00,57.4,57.1,29.95,South,180,0.0,-999.0,99,-99.99,,,0.00,Acu-Link.com,2013-10-16 03:45:00,